UAE941 OMDB-ORBI

Flight info

Callsign UAE941
Flight time 1h 57m
Altitude 40000
Route RIDAP M557 TUMAK L602 LOVEK DCT BGD
Aircraft B77L/H-SDE1E2E3FGHIJ2J3J4J5M1RWXY/LB1D1

Departure

Time 2026-05-05 00:43
Airport Dubai International Airport (OMDB)

Arrival

Time 2026-05-05 02:40
Airport Baghdad International Airport / New Al Muthana Air Base (ORBI)
Time Latitude Longitude Altitude Speed Heading
2026-05-05 00:07 25.25363 55.35390 24 ft 0 kts 211°
2026-05-05 00:32 25.25371 55.35395 24 ft 2 kts 211°
2026-05-05 00:33 25.25383 55.35403 24 ft 2 kts 211°
2026-05-05 00:33 25.25396 55.35412 23 ft 2 kts 211°
2026-05-05 00:33 25.25408 55.35421 23 ft 2 kts 211°
2026-05-05 00:33 25.25417 55.35426 23 ft 2 kts 207°
2026-05-05 00:34 25.25431 55.35432 23 ft 2 kts 187°
2026-05-05 00:34 25.25446 55.35433 22 ft 2 kts 173°
2026-05-05 00:34 25.25460 55.35430 22 ft 2 kts 157°
2026-05-05 00:34 25.25474 55.35422 22 ft 2 kts 141°
2026-05-05 00:35 25.25484 55.35411 22 ft 2 kts 126°
2026-05-05 00:35 25.25488 55.35405 21 ft 1 kts 121°
2026-05-05 00:35 25.25489 55.35404 21 ft 0 kts 121°
2026-05-05 00:39 25.25487 55.35407 21 ft 2 kts 121°
2026-05-05 00:39 25.25474 55.35436 22 ft 6 kts 109°
2026-05-05 00:39 25.25469 55.35494 22 ft 9 kts 91°
2026-05-05 00:39 25.25466 55.35571 22 ft 11 kts 95°
2026-05-05 00:40 25.25455 55.35636 22 ft 8 kts 107°
2026-05-05 00:40 25.25435 55.35696 23 ft 6 kts 99°
2026-05-05 00:40 25.25449 55.35731 23 ft 6 kts 44°
2026-05-05 00:40 25.25490 55.35759 23 ft 8 kts 32°
2026-05-05 00:41 25.25543 55.35796 23 ft 10 kts 32°
2026-05-05 00:41 25.25593 55.35839 23 ft 9 kts 58°
2026-05-05 00:41 25.25580 55.35901 23 ft 6 kts 122°
2026-05-05 00:41 25.25577 55.35907 23 ft 0 kts 122°
2026-05-05 00:42 25.25556 55.35944 23 ft 14 kts 121°
2026-05-05 00:43 25.25410 55.36209 30 ft 81 kts 122°
2026-05-05 00:43 25.24983 55.36977 68 ft 152 kts 121°
2026-05-05 00:43 25.24351 55.38132 401 ft 189 kts 121°
2026-05-05 00:43 25.23651 55.39410 1107 ft 207 kts 121°
2026-05-05 00:44 25.22895 55.40815 1889 ft 219 kts 121°
2026-05-05 00:44 25.22104 55.42209 2886 ft 217 kts 122°
2026-05-05 00:44 25.21259 55.43594 3687 ft 225 kts 131°
2026-05-05 00:44 25.19986 55.44587 4506 ft 232 kts 161°
2026-05-05 00:45 25.18473 55.44642 5629 ft 221 kts 195°
2026-05-05 00:45 25.17151 55.43845 6472 ft 221 kts 216°
2026-05-05 00:45 25.15896 55.42908 7310 ft 222 kts 211°
2026-05-05 00:45 25.14668 55.41797 7773 ft 241 kts 234°
2026-05-05 00:46 25.14070 55.40057 8389 ft 252 kts 266°
2026-05-05 00:46 25.14241 55.38159 9223 ft 252 kts 279°
2026-05-05 00:46 25.14446 55.36247 10052 ft 255 kts 275°
2026-05-05 00:46 25.14610 55.34324 10792 ft 255 kts 275°
2026-05-05 00:47 25.14785 55.32374 11399 ft 259 kts 275°
2026-05-05 00:47 25.14989 55.30381 11828 ft 270 kts 280°
2026-05-05 00:47 25.15481 55.28263 11860 ft 297 kts 285°
2026-05-05 00:47 25.16043 55.25973 11912 ft 322 kts 284°
2026-05-05 00:48 25.16698 55.23537 11992 ft 341 kts 292°
2026-05-05 00:48 25.17847 55.21226 12441 ft 348 kts 302°
2026-05-05 00:48 25.19121 55.18955 13119 ft 349 kts 301°
2026-05-05 00:48 25.20384 55.16672 13787 ft 351 kts 302°
2026-05-05 00:49 25.21677 55.14367 14402 ft 354 kts 301°
2026-05-05 00:49 25.22977 55.12043 14998 ft 357 kts 302°
2026-05-05 00:49 25.24289 55.09701 15577 ft 360 kts 302°
2026-05-05 00:49 25.25614 55.07334 16142 ft 363 kts 302°
2026-05-05 00:50 25.26947 55.04953 16691 ft 366 kts 302°
2026-05-05 00:50 25.28295 55.02543 17227 ft 369 kts 302°
2026-05-05 00:50 25.29653 55.00116 17755 ft 372 kts 302°
2026-05-05 00:50 25.31020 54.97670 18275 ft 375 kts 302°
2026-05-05 00:51 25.32408 54.95185 18785 ft 378 kts 302°
2026-05-05 00:51 25.33796 54.92700 19278 ft 381 kts 301°
2026-05-05 00:51 25.35012 54.90100 19694 ft 383 kts 291°
2026-05-05 00:51 25.35822 54.87288 20097 ft 386 kts 287°
2026-05-05 00:52 25.36655 54.84459 20536 ft 389 kts 288°
2026-05-05 00:52 25.37477 54.81599 20994 ft 391 kts 288°
2026-05-05 00:52 25.38305 54.78714 21442 ft 393 kts 288°
2026-05-05 00:52 25.39140 54.75796 21874 ft 396 kts 288°
2026-05-05 00:53 25.39973 54.72880 22295 ft 399 kts 288°
2026-05-05 00:53 25.40811 54.69943 22707 ft 401 kts 288°
2026-05-05 00:53 25.41654 54.66984 23111 ft 404 kts 288°
2026-05-05 00:53 25.42498 54.64021 23505 ft 406 kts 288°
2026-05-05 00:54 25.43357 54.61024 23893 ft 408 kts 288°
2026-05-05 00:54 25.44249 54.58024 24272 ft 411 kts 288°
2026-05-05 00:54 25.45149 54.54977 24688 ft 414 kts 288°
2026-05-05 00:54 25.46048 54.51939 25102 ft 416 kts 288°
2026-05-05 00:55 25.46948 54.48895 25496 ft 419 kts 288°
2026-05-05 00:55 25.47855 54.45825 25881 ft 421 kts 288°
2026-05-05 00:55 25.48764 54.42743 26260 ft 424 kts 288°
2026-05-05 00:55 25.49679 54.39638 26637 ft 426 kts 288°
2026-05-05 00:56 25.50598 54.36518 27008 ft 429 kts 288°
2026-05-05 00:56 25.51530 54.33350 27379 ft 431 kts 288°
2026-05-05 00:56 25.52456 54.30202 27740 ft 433 kts 288°
2026-05-05 00:56 25.53385 54.27039 28097 ft 436 kts 288°
2026-05-05 00:57 25.54325 54.23839 28449 ft 438 kts 288°
2026-05-05 00:57 25.55276 54.20601 28795 ft 441 kts 288°
2026-05-05 00:57 25.56226 54.17362 29136 ft 443 kts 288°
2026-05-05 00:57 25.57175 54.14127 29470 ft 445 kts 288°
2026-05-05 00:58 25.58134 54.10851 29799 ft 448 kts 288°
2026-05-05 00:58 25.59097 54.07560 30121 ft 450 kts 288°
2026-05-05 00:58 25.60048 54.04250 30430 ft 452 kts 287°
2026-05-05 00:58 25.60997 54.00923 30732 ft 454 kts 288°
2026-05-05 00:59 25.61949 53.97589 31040 ft 456 kts 287°
2026-05-05 00:59 25.62908 53.94223 31351 ft 459 kts 287°
2026-05-05 00:59 25.63871 53.90843 31661 ft 461 kts 287°
2026-05-05 00:59 25.64846 53.87415 31974 ft 463 kts 287°
2026-05-05 01:00 25.65814 53.84010 32284 ft 465 kts 287°
2026-05-05 01:00 25.66787 53.80581 32592 ft 467 kts 287°
2026-05-05 01:00 25.67766 53.77129 32895 ft 470 kts 287°
2026-05-05 01:00 25.68747 53.73669 33207 ft 472 kts 287°
2026-05-05 01:01 25.69726 53.70195 33512 ft 474 kts 287°
2026-05-05 01:01 25.70708 53.66705 33899 ft 474 kts 287°
2026-05-05 01:01 25.71695 53.63195 34364 ft 473 kts 287°
2026-05-05 01:01 25.72667 53.59732 34819 ft 471 kts 287°
2026-05-05 01:02 25.73637 53.56276 35242 ft 470 kts 287°
2026-05-05 01:02 25.74604 53.52826 35638 ft 469 kts 287°
2026-05-05 01:02 25.75570 53.49381 36021 ft 468 kts 287°
2026-05-05 01:02 25.76539 53.45931 36371 ft 468 kts 287°
2026-05-05 01:03 25.77502 53.42500 36678 ft 468 kts 287°
2026-05-05 01:03 25.78472 53.39039 36969 ft 468 kts 287°
2026-05-05 01:03 25.79432 53.35610 37256 ft 468 kts 287°
2026-05-05 01:03 25.80154 53.33033 37463 ft 468 kts 287°
2026-05-05 01:04 25.81325 53.28842 37773 ft 468 kts 287°
2026-05-05 01:04 25.83240 53.21980 38270 ft 468 kts 287°
2026-05-05 01:04 25.84253 53.18570 38482 ft 467 kts 291°
2026-05-05 01:05 25.85567 53.15261 38661 ft 467 kts 294°
2026-05-05 01:05 25.86889 53.11984 38847 ft 468 kts 294°
2026-05-05 01:05 25.88214 53.08706 39045 ft 468 kts 294°
2026-05-05 01:05 25.89543 53.05433 39248 ft 468 kts 294°
2026-05-05 01:06 25.90876 53.02149 39440 ft 468 kts 294°
2026-05-05 01:06 25.92210 52.98864 39621 ft 468 kts 294°
2026-05-05 01:06 25.93539 52.95588 39785 ft 467 kts 294°
2026-05-05 01:06 25.94882 52.92277 39950 ft 468 kts 294°
2026-05-05 01:07 25.96213 52.88992 40109 ft 468 kts 294°
2026-05-05 01:07 25.97537 52.85723 40213 ft 462 kts 294°
2026-05-05 01:07 26.00171 52.79211 40224 ft 466 kts 294°
2026-05-05 01:08 26.01500 52.75921 40027 ft 468 kts 294°
2026-05-05 01:08 26.02898 52.72683 39998 ft 465 kts 297°
2026-05-05 01:08 26.05806 52.66255 40000 ft 466 kts 297°
2026-05-05 01:09 26.08702 52.59820 40000 ft 467 kts 297°
2026-05-05 01:09 26.11597 52.53379 40000 ft 467 kts 297°
2026-05-05 01:10 26.14505 52.46934 40000 ft 467 kts 297°
2026-05-05 01:10 26.17398 52.40512 40000 ft 467 kts 297°
2026-05-05 01:11 26.20292 52.34077 40000 ft 467 kts 296°
2026-05-05 01:11 26.23146 52.27622 40000 ft 467 kts 295°
2026-05-05 01:12 26.25962 52.21120 40000 ft 467 kts 295°
2026-05-05 01:12 26.28764 52.14643 40000 ft 466 kts 295°
2026-05-05 01:13 26.31577 52.08132 40000 ft 467 kts 296°
2026-05-05 01:13 26.34393 52.01616 40000 ft 466 kts 296°
2026-05-05 01:14 26.37190 51.95105 40000 ft 466 kts 294°
2026-05-05 01:14 26.39515 51.88379 40001 ft 467 kts 291°
2026-05-05 01:15 26.41799 51.81623 40000 ft 466 kts 290°
2026-05-05 01:15 26.44073 51.74849 40000 ft 466 kts 290°
2026-05-05 01:16 26.46334 51.68097 40000 ft 466 kts 290°
2026-05-05 01:16 26.48595 51.61328 40000 ft 467 kts 290°
2026-05-05 01:17 26.50863 51.54515 40000 ft 467 kts 290°
2026-05-05 01:17 26.53117 51.47733 40000 ft 467 kts 290°
2026-05-05 01:18 26.55365 51.40957 40000 ft 466 kts 290°
2026-05-05 01:18 26.57612 51.34173 40000 ft 466 kts 290°
2026-05-05 01:19 26.59860 51.27380 40000 ft 467 kts 290°
2026-05-05 01:19 26.62100 51.20617 40000 ft 467 kts 290°
2026-05-05 01:20 26.64337 51.13852 40000 ft 466 kts 290°
2026-05-05 01:20 26.66584 51.07046 40000 ft 466 kts 290°
2026-05-05 01:21 26.68808 51.00273 40000 ft 467 kts 290°
2026-05-05 01:21 26.70988 50.93468 40000 ft 467 kts 290°
2026-05-05 01:22 26.73163 50.86670 40000 ft 467 kts 290°
2026-05-05 01:22 26.75344 50.79840 40000 ft 466 kts 290°
2026-05-05 01:23 26.77514 50.73034 40000 ft 466 kts 290°
2026-05-05 01:23 26.79849 50.66309 39999 ft 467 kts 297°
2026-05-05 01:24 26.83576 50.60406 40008 ft 467 kts 309°
2026-05-05 01:24 26.87633 50.54787 40000 ft 466 kts 309°
2026-05-05 01:25 26.91711 50.49187 40000 ft 466 kts 310°
2026-05-05 01:25 26.96128 50.43920 40001 ft 467 kts 313°
2026-05-05 01:26 27.00572 50.38632 40000 ft 466 kts 314°
2026-05-05 01:26 27.05002 50.33355 40000 ft 466 kts 313°
2026-05-05 01:27 27.09395 50.28055 40000 ft 466 kts 313°
2026-05-05 01:27 27.13808 50.22724 40000 ft 466 kts 313°
2026-05-05 01:28 27.18617 50.17925 40008 ft 467 kts 324°
2026-05-05 01:28 27.23811 50.13611 39999 ft 466 kts 323°
2026-05-05 01:29 27.29001 50.09317 40000 ft 466 kts 323°
2026-05-05 01:29 27.34225 50.04996 40000 ft 466 kts 323°
2026-05-05 01:30 27.39356 50.00575 40001 ft 467 kts 322°
2026-05-05 01:30 27.44453 49.96099 40000 ft 467 kts 322°
2026-05-05 01:31 27.49566 49.91600 40000 ft 467 kts 322°
2026-05-05 01:31 27.54648 49.87122 40000 ft 467 kts 322°
2026-05-05 01:32 27.59743 49.82628 40000 ft 467 kts 322°
2026-05-05 01:32 27.64824 49.78140 39999 ft 466 kts 322°
2026-05-05 01:33 27.69924 49.73631 40000 ft 466 kts 322°
2026-05-05 01:33 27.75007 49.69131 40000 ft 466 kts 322°
2026-05-05 01:34 27.80074 49.64628 40001 ft 467 kts 322°
2026-05-05 01:34 27.85166 49.60084 40000 ft 467 kts 322°
2026-05-05 01:35 27.90233 49.55557 39999 ft 466 kts 322°
2026-05-05 01:35 27.95290 49.51032 40000 ft 466 kts 322°
2026-05-05 01:36 28.00351 49.46499 40000 ft 466 kts 322°
2026-05-05 01:36 28.05420 49.41915 40001 ft 467 kts 321°
2026-05-05 01:37 28.10452 49.37326 40000 ft 467 kts 321°
2026-05-05 01:37 28.15487 49.32730 40000 ft 466 kts 321°
2026-05-05 01:38 28.20526 49.28123 40000 ft 466 kts 321°
2026-05-05 01:38 28.25541 49.23533 40000 ft 466 kts 321°
2026-05-05 01:39 28.30556 49.18937 40000 ft 466 kts 321°
2026-05-05 01:39 28.35583 49.14326 40000 ft 466 kts 321°
2026-05-05 01:40 28.40658 49.09758 39998 ft 466 kts 325°
2026-05-05 01:40 28.46034 49.05701 40000 ft 467 kts 326°
2026-05-05 01:41 28.51394 49.01597 40000 ft 467 kts 326°
2026-05-05 01:41 28.56763 48.97476 40000 ft 467 kts 326°
2026-05-05 01:42 28.62116 48.93361 40000 ft 467 kts 326°
2026-05-05 01:42 28.67465 48.89245 39999 ft 466 kts 326°
2026-05-05 01:43 28.72804 48.85132 40000 ft 466 kts 326°
2026-05-05 01:43 28.78166 48.80994 40000 ft 466 kts 326°
2026-05-05 01:44 28.83512 48.76889 40001 ft 467 kts 326°
2026-05-05 01:44 28.88874 48.72780 40000 ft 467 kts 326°
2026-05-05 01:45 28.94250 48.68657 40000 ft 467 kts 326°
2026-05-05 01:45 28.99606 48.64543 40000 ft 467 kts 326°
2026-05-05 01:46 29.04960 48.60426 40000 ft 467 kts 326°
2026-05-05 01:46 29.10313 48.56305 40000 ft 467 kts 326°
2026-05-05 01:47 29.15696 48.52156 40000 ft 467 kts 326°
2026-05-05 01:47 29.21050 48.48024 40000 ft 467 kts 326°
2026-05-05 01:48 29.26404 48.43885 40000 ft 467 kts 326°
2026-05-05 01:48 29.31767 48.39735 40000 ft 466 kts 326°
2026-05-05 01:49 29.37104 48.35600 40000 ft 466 kts 326°
2026-05-05 01:49 29.42451 48.31450 40000 ft 466 kts 326°
2026-05-05 01:50 29.48005 48.27661 40004 ft 467 kts 330°
2026-05-05 01:50 29.53635 48.23956 40000 ft 467 kts 330°
2026-05-05 01:51 29.59236 48.20270 40000 ft 467 kts 330°
2026-05-05 01:51 29.64839 48.16576 40000 ft 467 kts 330°
2026-05-05 01:52 29.70457 48.12867 40000 ft 467 kts 330°
2026-05-05 01:52 29.76059 48.09164 40000 ft 467 kts 330°
2026-05-05 01:53 29.81651 48.05463 40000 ft 467 kts 330°
2026-05-05 01:53 29.87248 48.01754 39999 ft 466 kts 330°
2026-05-05 01:54 29.92853 47.98034 40000 ft 466 kts 330°
2026-05-05 01:54 29.98436 47.94324 40000 ft 466 kts 330°
2026-05-05 01:55 30.03573 47.89855 40008 ft 467 kts 314°
2026-05-05 01:55 30.07864 47.84253 39999 ft 467 kts 311°
2026-05-05 01:56 30.12112 47.78618 40000 ft 467 kts 311°
2026-05-05 01:56 30.16337 47.72982 40000 ft 467 kts 311°
2026-05-05 01:57 30.20558 47.67338 40000 ft 467 kts 311°
2026-05-05 01:57 30.24796 47.61661 40000 ft 467 kts 311°
2026-05-05 01:58 30.29011 47.56006 40000 ft 467 kts 311°
2026-05-05 01:58 30.33228 47.50341 40000 ft 467 kts 311°
2026-05-05 01:59 30.37460 47.44647 40000 ft 467 kts 311°
2026-05-05 01:59 30.41659 47.38990 40000 ft 467 kts 311°
2026-05-05 02:00 30.45871 47.33306 39999 ft 466 kts 310°
2026-05-05 02:00 30.50078 47.27623 40000 ft 466 kts 310°
2026-05-05 02:01 30.54301 47.21908 40000 ft 466 kts 310°
2026-05-05 02:01 30.58501 47.16217 40001 ft 467 kts 310°
2026-05-05 02:02 30.62704 47.10516 40000 ft 467 kts 310°
2026-05-05 02:02 30.66921 47.04789 40000 ft 467 kts 310°
2026-05-05 02:03 30.71115 46.99083 40000 ft 467 kts 310°
2026-05-05 02:03 30.75307 46.93371 40000 ft 467 kts 310°
2026-05-05 02:04 30.79495 46.87657 40000 ft 467 kts 310°
2026-05-05 02:04 30.83700 46.81911 40000 ft 467 kts 310°
2026-05-05 02:05 30.87887 46.76182 40000 ft 467 kts 310°
2026-05-05 02:05 30.92069 46.70450 40000 ft 467 kts 310°
2026-05-05 02:06 30.96268 46.64687 40000 ft 467 kts 310°
2026-05-05 02:06 31.00444 46.58947 40000 ft 467 kts 310°
2026-05-05 02:07 31.04621 46.53197 40000 ft 467 kts 310°
2026-05-05 02:07 31.08794 46.47444 39999 ft 466 kts 310°
2026-05-05 02:08 31.12976 46.41670 40000 ft 466 kts 310°
2026-05-05 02:08 31.17142 46.35911 40000 ft 466 kts 310°
2026-05-05 02:09 31.21308 46.30141 40001 ft 467 kts 310°
2026-05-05 02:09 31.25489 46.24334 40000 ft 467 kts 310°
2026-05-05 02:10 31.29650 46.18548 40000 ft 467 kts 310°
2026-05-05 02:10 31.33808 46.12756 40000 ft 467 kts 310°
2026-05-05 02:11 31.37958 46.06967 40000 ft 467 kts 310°
2026-05-05 02:11 31.42121 46.01151 40000 ft 467 kts 310°
2026-05-05 02:12 31.48327 45.92464 39005 ft 461 kts 310°
2026-05-05 02:12 31.50359 45.89615 38508 ft 456 kts 310°
2026-05-05 02:13 31.52365 45.86801 38017 ft 451 kts 310°
2026-05-05 02:13 31.54367 45.83991 37526 ft 446 kts 310°
2026-05-05 02:13 31.56334 45.81227 37040 ft 441 kts 310°
2026-05-05 02:13 31.58277 45.78496 36561 ft 436 kts 310°
2026-05-05 02:14 31.60198 45.75792 36085 ft 432 kts 310°
2026-05-05 02:14 31.62102 45.73111 35611 ft 427 kts 310°
2026-05-05 02:14 31.63984 45.70460 35144 ft 422 kts 310°
2026-05-05 02:14 31.65842 45.67841 34681 ft 418 kts 310°
2026-05-05 02:15 31.67692 45.65231 34222 ft 413 kts 310°
2026-05-05 02:15 31.69509 45.62665 33770 ft 409 kts 310°
2026-05-05 02:15 31.71311 45.60120 33324 ft 406 kts 310°
2026-05-05 02:15 31.73108 45.57579 32883 ft 407 kts 310°
2026-05-05 02:16 31.74910 45.55031 32441 ft 410 kts 310°
2026-05-05 02:16 31.76726 45.52459 31996 ft 412 kts 310°
2026-05-05 02:16 31.78547 45.49880 31550 ft 413 kts 310°
2026-05-05 02:16 31.80391 45.47275 31099 ft 414 kts 310°
2026-05-05 02:17 31.82228 45.44689 30652 ft 414 kts 310°
2026-05-05 02:17 31.84056 45.42111 30190 ft 413 kts 310°
2026-05-05 02:17 31.85881 45.39536 29695 ft 410 kts 310°
2026-05-05 02:17 31.87684 45.36990 29210 ft 406 kts 310°
2026-05-05 02:18 31.89476 45.34458 28729 ft 402 kts 309°
2026-05-05 02:18 31.91247 45.31955 28255 ft 399 kts 309°
2026-05-05 02:18 31.93014 45.29455 27784 ft 395 kts 309°
2026-05-05 02:18 31.94751 45.26997 27324 ft 391 kts 309°
2026-05-05 02:19 31.96476 45.24555 26869 ft 388 kts 309°
2026-05-05 02:19 31.98188 45.22128 26419 ft 386 kts 309°
2026-05-05 02:19 31.99887 45.19718 25974 ft 384 kts 309°
2026-05-05 02:19 32.01577 45.17319 25531 ft 381 kts 309°
2026-05-05 02:20 32.03256 45.14934 25092 ft 379 kts 309°
2026-05-05 02:20 32.04934 45.12551 24654 ft 376 kts 309°
2026-05-05 02:20 32.06590 45.10196 24221 ft 373 kts 309°
2026-05-05 02:20 32.08234 45.07857 23792 ft 371 kts 309°
2026-05-05 02:21 32.09866 45.05534 23367 ft 368 kts 309°
2026-05-05 02:21 32.11435 45.03298 22959 ft 366 kts 309°
2026-05-05 02:21 32.13045 45.01003 22540 ft 364 kts 309°
2026-05-05 02:21 32.14642 44.98725 22123 ft 361 kts 309°
2026-05-05 02:22 32.16242 44.96443 21703 ft 359 kts 309°
2026-05-05 02:22 32.17819 44.94186 21286 ft 357 kts 309°
2026-05-05 02:22 32.19380 44.91941 20869 ft 355 kts 309°
2026-05-05 02:22 32.20931 44.89713 20463 ft 352 kts 309°
2026-05-05 02:23 32.22478 44.87488 20060 ft 350 kts 309°
2026-05-05 02:23 32.24007 44.85286 19661 ft 348 kts 309°
2026-05-05 02:23 32.25532 44.83090 19263 ft 346 kts 309°
2026-05-05 02:23 32.27055 44.80896 18865 ft 344 kts 309°
2026-05-05 02:24 32.28558 44.78728 18471 ft 342 kts 309°
2026-05-05 02:24 32.30053 44.76571 18080 ft 340 kts 309°
2026-05-05 02:24 32.31538 44.74428 17691 ft 338 kts 309°
2026-05-05 02:24 32.33015 44.72294 17304 ft 336 kts 309°
2026-05-05 02:25 32.34481 44.70176 16920 ft 334 kts 309°
2026-05-05 02:25 32.35969 44.68104 16536 ft 331 kts 315°
2026-05-05 02:25 32.37797 44.66470 16152 ft 330 kts 333°
2026-05-05 02:25 32.39906 44.65484 15783 ft 327 kts 341°
2026-05-05 02:26 32.42042 44.64598 15406 ft 327 kts 340°
2026-05-05 02:26 32.44168 44.63705 15024 ft 325 kts 341°
2026-05-05 02:26 32.46281 44.62832 14647 ft 323 kts 341°
2026-05-05 02:26 32.48382 44.61963 14269 ft 321 kts 341°
2026-05-05 02:27 32.50472 44.61101 13898 ft 319 kts 341°
2026-05-05 02:27 32.52561 44.60238 13535 ft 317 kts 341°
2026-05-05 02:27 32.54629 44.59384 13183 ft 315 kts 341°
2026-05-05 02:27 32.56683 44.58536 12833 ft 314 kts 341°
2026-05-05 02:28 32.58728 44.57691 12484 ft 312 kts 341°
2026-05-05 02:28 32.60760 44.56851 12136 ft 311 kts 341°
2026-05-05 02:28 32.62784 44.56014 11788 ft 309 kts 341°
2026-05-05 02:28 32.64797 44.55181 11441 ft 307 kts 341°
2026-05-05 02:29 32.66814 44.54346 11093 ft 306 kts 341°
2026-05-05 02:29 32.68808 44.53520 10748 ft 304 kts 341°
2026-05-05 02:29 32.70789 44.52699 10404 ft 303 kts 341°
2026-05-05 02:29 32.72768 44.51879 10060 ft 301 kts 341°
2026-05-05 02:30 32.74730 44.51065 9717 ft 298 kts 341°
2026-05-05 02:30 32.76663 44.50263 9378 ft 295 kts 341°
2026-05-05 02:30 32.78531 44.49487 9010 ft 277 kts 341°
2026-05-05 02:30 32.80335 44.48738 8714 ft 275 kts 341°
2026-05-05 02:31 32.82133 44.47991 8402 ft 272 kts 341°
2026-05-05 02:31 32.83900 44.47256 8096 ft 270 kts 341°
2026-05-05 02:31 32.85657 44.46526 7793 ft 268 kts 341°
2026-05-05 02:31 32.87403 44.45799 7492 ft 267 kts 341°
2026-05-05 02:32 32.89145 44.45074 7190 ft 265 kts 341°
2026-05-05 02:32 32.90868 44.44357 6888 ft 263 kts 341°
2026-05-05 02:32 32.92577 44.43645 6589 ft 261 kts 341°
2026-05-05 02:32 32.94282 44.42934 6291 ft 258 kts 341°
2026-05-05 02:33 32.95962 44.42234 5996 ft 256 kts 341°
2026-05-05 02:33 32.97621 44.41542 5694 ft 250 kts 341°
2026-05-05 02:33 32.99221 44.40874 5399 ft 240 kts 341°
2026-05-05 02:33 33.00754 44.40235 5128 ft 230 kts 341°
2026-05-05 02:34 33.02227 44.39619 4863 ft 221 kts 341°
2026-05-05 02:34 33.03652 44.39024 4631 ft 215 kts 341°
2026-05-05 02:34 33.05059 44.38436 4403 ft 213 kts 341°
2026-05-05 02:34 33.06442 44.37858 4171 ft 210 kts 341°
2026-05-05 02:35 33.07762 44.37206 3940 ft 205 kts 333°
2026-05-05 02:35 33.09001 44.36392 3693 ft 203 kts 331°
2026-05-05 02:35 33.10204 44.35576 3473 ft 194 kts 330°
2026-05-05 02:35 33.11319 44.34822 3272 ft 177 kts 330°
2026-05-05 02:36 33.12342 44.34111 3024 ft 164 kts 329°
2026-05-05 02:36 33.13283 44.33459 2804 ft 149 kts 330°
2026-05-05 02:36 33.14161 44.32854 2602 ft 144 kts 330°
2026-05-05 02:36 33.15032 44.32255 2425 ft 145 kts 330°
2026-05-05 02:37 33.15915 44.31650 2242 ft 145 kts 330°
2026-05-05 02:37 33.16787 44.31053 2053 ft 145 kts 330°
2026-05-05 02:37 33.17655 44.30460 1861 ft 145 kts 330°
2026-05-05 02:37 33.18521 44.29868 1668 ft 144 kts 330°
2026-05-05 02:38 33.19393 44.29272 1474 ft 144 kts 330°
2026-05-05 02:38 33.20255 44.28682 1280 ft 143 kts 330°
2026-05-05 02:38 33.21117 44.28096 1074 ft 143 kts 330°
2026-05-05 02:38 33.21970 44.27515 862 ft 141 kts 329°
2026-05-05 02:39 33.22813 44.26916 686 ft 142 kts 329°
2026-05-05 02:39 33.23666 44.26333 515 ft 143 kts 330°
2026-05-05 02:39 33.24527 44.25748 325 ft 142 kts 330°
2026-05-05 02:39 33.25390 44.25167 147 ft 141 kts 330°
2026-05-05 02:40 33.26158 44.24643 133 ft 101 kts 330°
2026-05-05 02:40 33.26629 44.24320 133 ft 69 kts 330°
2026-05-05 02:40 33.27016 44.24051 133 ft 55 kts 328°
2026-05-05 02:40 33.27261 44.23865 133 ft 29 kts 320°
2026-05-05 02:41 33.27337 44.23753 133 ft 10 kts 299°
2026-05-05 02:41 33.27373 44.23674 133 ft 10 kts 297°
2026-05-05 02:41 33.27398 44.23616 134 ft 7 kts 297°
2026-05-05 02:41 33.27394 44.23556 136 ft 8 kts 244°
2026-05-05 02:42 33.27362 44.23494 137 ft 9 kts 238°
2026-05-05 02:42 33.27327 44.23423 138 ft 10 kts 239°
2026-05-05 02:42 33.27290 44.23346 139 ft 11 kts 241°
2026-05-05 02:42 33.27253 44.23265 140 ft 11 kts 240°
2026-05-05 02:43 33.27213 44.23181 141 ft 12 kts 240°
2026-05-05 02:43 33.27169 44.23093 142 ft 12 kts 232°
2026-05-05 02:43 33.27109 44.23024 144 ft 12 kts 220°
2026-05-05 02:43 33.27053 44.22948 144 ft 10 kts 237°
2026-05-05 02:44 33.27032 44.22921 144 ft 4 kts 219°
2026-05-05 02:44 33.26993 44.22906 144 ft 6 kts 188°
2026-05-05 02:44 33.26969 44.22906 144 ft 3 kts 176°
2026-05-05 02:44 33.26942 44.22908 145 ft 4 kts 179°
2026-05-05 02:45 33.26925 44.22908 145 ft 0 kts 180°